Weather History for Charleston, SC

Change the Weather History Date:

Tuesday, October 8, 2013

  Actual Average (KCHS) Record (KCHS)
Temperature  
Mean Temperature 68 °F 69 °F  
Max Temperature 75 °F 79 °F 90 °F (1962)
Min Temperature 60 °F 60 °F 41 °F (1938)
Degree Days  
Heating Degree Days 0 1  
Month to date heating degree days 8  
Since 1 July heating degree days 11  
Cooling Degree Days 2 5  
Month to date cooling degree days 50  
Year to date cooling degree days 2188  
Growing Degree Days 18 (Base 50)    
Moisture  
Dew Point 64 °F    
Average Humidity 86    
Maximum Humidity 94    
Minimum Humidity 77    
Precipitation  
Precipitation 0.00 in 0.14 in 3.73 in (1996)
Month to date precipitation 1.22  
Year to date precipitation 42.96  
Sea Level Pressure  
Sea Level Pressure 29.97 in    
Wind  
Wind Speed 8 mph (North)    
Max Wind Speed 21 mph    
Max Gust Speed 26 mph    
Visibility 10 miles    
Events      
T = Trace of Precipitation, MM = Missing Value Source: NWS Daily Summary

Daily Weather History Graph

Daily Weather History Graph

Search for Another Location

Airport:

Trip Planner

Search our weather history database for the weather conditions in past years. The results will help you decide how hot, cold, wet, or windy it might be!

Date:

Astronomy

Oct. 08, 2013 Rise Set
Actual Time 7:19 AM EDT 6:55 PM EDT
Civil Twilight 6:54 AM EDT 7:19 PM EDT
Nautical Twilight 6:25 AM EDT 7:48 PM EDT
Astronomical Twilight 5:57 AM EDT 8:17 PM EDT
Moon 10:59 AM EDT (10/8) 9:42 PM EDT (10/8)
Length of Visible Light 12h 25m
Length of Day
11h 36m
Waxing Crescent, 16% of the Moon is Illuminated
Oct 8
Waxing Crescent
Oct 11
First Quarter
Oct 18
Full
Oct 26
Last Quarter
Nov 3
New

Hourly Weather History & Observations

Time (EDT) Temp. Dew Point Humidity Pressure Visibility Wind Dir Wind Speed Gust Speed Precip Events Conditions
12:15 AM 75.2 °F 73.4 °F 94% 29.90 in 10.0 mi Calm Calm - 0.00 in   Partly Cloudy
12:35 AM 75.2 °F 73.4 °F 94% 29.89 in 10.0 mi Calm Calm - 0.00 in   Mostly Cloudy
12:55 AM 75.2 °F 73.4 °F 94% 29.88 in 7.0 mi Calm Calm - 0.00 in   Mostly Cloudy
1:15 AM 75.2 °F 73.4 °F 94% 29.88 in 7.0 mi Calm Calm - 0.00 in   Mostly Cloudy
1:35 AM 75.2 °F 73.4 °F 94% 29.89 in 7.0 mi Calm Calm - 0.00 in   Overcast
1:55 AM 75.2 °F 73.4 °F 94% 29.89 in 7.0 mi Calm Calm - 0.00 in   Overcast
2:15 AM 75.2 °F 73.4 °F 94% 29.88 in 10.0 mi Calm Calm - 0.00 in   Scattered Clouds
2:35 AM 75.2 °F 73.4 °F 94% 29.87 in 10.0 mi Calm Calm - 0.00 in   Clear
2:55 AM 75.2 °F 73.4 °F 94% 29.87 in 10.0 mi North 6.9 mph - 0.00 in   Partly Cloudy
3:15 AM 75.2 °F 73.4 °F 94% 29.85 in 7.0 mi Calm Calm - 0.00 in   Mostly Cloudy
3:35 AM 75.2 °F 73.4 °F 94% 29.85 in 5.0 mi NNW 6.9 mph - 0.00 in   Mostly Cloudy
3:55 AM 75.2 °F 73.4 °F 94% 29.84 in 7.0 mi North 6.9 mph - 0.00 in   Mostly Cloudy
4:15 AM 75.2 °F 73.4 °F 94% 29.86 in 9.0 mi NNE 6.9 mph - 0.00 in   Mostly Cloudy
4:35 AM 75.2 °F 73.4 °F 94% 29.88 in 10.0 mi NE 9.2 mph - 0.00 in   Mostly Cloudy
4:55 AM 75.2 °F 71.6 °F 89% 29.88 in 10.0 mi NE 9.2 mph - 0.00 in   Overcast
5:15 AM 73.4 °F 71.6 °F 94% 29.88 in 10.0 mi NNE 3.5 mph - 0.00 in   Overcast
5:35 AM 75.2 °F 71.6 °F 89% 29.89 in 10.0 mi North 5.8 mph - 0.00 in   Overcast
5:55 AM 75.2 °F 71.6 °F 89% 29.90 in 10.0 mi NNE 6.9 mph - 0.00 in   Overcast
6:15 AM 75.2 °F 71.6 °F 89% 29.90 in 9.0 mi North 8.1 mph - 0.00 in   Light Drizzle
6:35 AM 75.2 °F 71.6 °F 89% 29.89 in 10.0 mi NNE 10.4 mph - 0.00 in   Overcast
6:55 AM 73.4 °F 71.6 °F 94% 29.90 in 9.0 mi North 9.2 mph - 0.00 in   Overcast
7:15 AM 73.4 °F 69.8 °F 88% 29.92 in 5.0 mi North 9.2 mph - 0.00 in   Overcast
7:35 AM 71.6 °F 69.8 °F 94% 29.92 in 10.0 mi North 11.5 mph 18.4 mph 0.00 in   Overcast
7:55 AM 69.8 °F 66.2 °F 88% 29.93 in 10.0 mi NNE 15.0 mph 20.7 mph 0.00 in   Overcast
8:15 AM 69.8 °F 66.2 °F 88% 29.94 in 10.0 mi North 10.4 mph 20.7 mph 0.00 in   Overcast
8:35 AM 69.8 °F 66.2 °F 88% 29.95 in 10.0 mi North 11.5 mph 19.6 mph 0.00 in   Overcast
8:55 AM 69.8 °F 66.2 °F 88% 29.95 in 10.0 mi North 12.7 mph 18.4 mph 0.00 in   Overcast
9:15 AM 69.8 °F 66.2 °F 88% 29.97 in 10.0 mi North 11.5 mph 19.6 mph 0.00 in   Overcast
9:35 AM 69.8 °F 66.2 °F 88% 29.97 in 10.0 mi North 15.0 mph - 0.00 in   Overcast
9:55 AM 69.8 °F 64.4 °F 83% 29.96 in 10.0 mi North 13.8 mph 20.7 mph 0.00 in   Overcast
10:15 AM 68.0 °F 64.4 °F 88% 29.97 in 10.0 mi North 15.0 mph 23.0 mph 0.00 in   Overcast
10:35 AM 68.0 °F 64.4 °F 88% 29.98 in 9.0 mi North 13.8 mph 20.7 mph 0.00 in   Overcast
10:55 AM 68.0 °F 64.4 °F 88% 29.97 in 10.0 mi North 18.4 mph 23.0 mph 0.00 in   Overcast
11:15 AM 66.2 °F 62.6 °F 88% 29.97 in 10.0 mi North 17.3 mph 24.2 mph 0.00 in   Overcast
11:35 AM 66.2 °F 62.6 °F 88% 30.00 in 10.0 mi North 16.1 mph 26.5 mph 0.00 in   Overcast
11:55 AM 66.2 °F 60.8 °F 83% 29.99 in 10.0 mi North 17.3 mph 24.2 mph 0.00 in   Overcast
12:15 PM 66.2 °F 60.8 °F 83% 30.00 in 10.0 mi North 15.0 mph 24.2 mph 0.00 in   Overcast
12:35 PM 66.2 °F 60.8 °F 83% 30.01 in 10.0 mi North 15.0 mph 23.0 mph 0.00 in   Overcast
12:55 PM 64.4 °F 60.8 °F 88% 30.00 in 10.0 mi North 16.1 mph 24.2 mph 0.00 in   Overcast
1:15 PM 64.4 °F 60.8 °F 88% 30.00 in 10.0 mi NNE 18.4 mph 25.3 mph 0.00 in   Overcast
1:35 PM 64.4 °F 60.8 °F 88% 29.99 in 10.0 mi NNE 17.3 mph 24.2 mph 0.00 in   Overcast
1:55 PM 64.4 °F 60.8 °F 88% 29.99 in 10.0 mi North 12.7 mph 25.3 mph 0.00 in   Overcast
2:15 PM 64.4 °F 60.8 °F 88% 29.99 in 10.0 mi North 16.1 mph 24.2 mph 0.00 in   Overcast
2:35 PM 64.4 °F 59.0 °F 83% 29.99 in 10.0 mi North 19.6 mph 25.3 mph 0.00 in   Overcast
2:55 PM 64.4 °F 59.0 °F 83% 29.99 in 10.0 mi North 17.3 mph 24.2 mph 0.00 in   Overcast
3:15 PM 64.4 °F 57.2 °F 77% 29.99 in 10.0 mi NNE 16.1 mph 24.2 mph 0.00 in   Overcast
3:35 PM 64.4 °F 57.2 °F 77% 30.00 in 10.0 mi North 17.3 mph 24.2 mph 0.00 in   Overcast
3:55 PM 64.4 °F 59.0 °F 83% 30.00 in 10.0 mi North 20.7 mph 26.5 mph 0.00 in   Overcast
4:15 PM 64.4 °F 59.0 °F 83% 30.01 in 10.0 mi North 16.1 mph 24.2 mph 0.00 in   Overcast
4:35 PM 64.4 °F 59.0 °F 83% 30.01 in 10.0 mi North 13.8 mph 21.9 mph 0.00 in   Overcast
4:55 PM 64.4 °F 57.2 °F 77% 30.01 in 10.0 mi North 17.3 mph 21.9 mph 0.00 in   Overcast
5:15 PM 64.4 °F 57.2 °F 77% 30.01 in 10.0 mi North 15.0 mph 23.0 mph 0.00 in   Overcast
5:35 PM 64.4 °F 57.2 °F 77% 30.02 in 10.0 mi North 13.8 mph - 0.00 in   Overcast
5:55 PM 64.4 °F 57.2 °F 77% 30.03 in 10.0 mi North 15.0 mph 21.9 mph 0.00 in   Overcast
6:15 PM 64.4 °F 57.2 °F 77% 30.04 in 10.0 mi North 13.8 mph 23.0 mph 0.00 in   Overcast
6:35 PM 62.6 °F 57.2 °F 82% 30.04 in 10.0 mi North 12.7 mph 23.0 mph 0.00 in   Overcast
6:55 PM 62.6 °F 57.2 °F 82% 30.04 in 10.0 mi North 17.3 mph 24.2 mph 0.00 in   Overcast
7:15 PM 62.6 °F 57.2 °F 82% 30.04 in 10.0 mi North 16.1 mph 21.9 mph 0.00 in   Overcast
7:35 PM 62.6 °F 57.2 °F 82% 30.05 in 10.0 mi North 16.1 mph - 0.00 in   Overcast
7:55 PM 62.6 °F 57.2 °F 82% 30.05 in 10.0 mi North 12.7 mph 23.0 mph 0.00 in   Overcast
8:15 PM 62.6 °F 57.2 °F 82% 30.06 in 10.0 mi North 12.7 mph 19.6 mph 0.00 in   Overcast
8:35 PM 62.6 °F 57.2 °F 82% 30.06 in 10.0 mi North 12.7 mph 21.9 mph 0.00 in   Overcast
8:55 PM 62.6 °F 57.2 °F 82% 30.06 in 10.0 mi North 15.0 mph 23.0 mph 0.00 in   Overcast
9:15 PM 62.6 °F 57.2 °F 82% 30.05 in 10.0 mi North 15.0 mph 24.2 mph 0.00 in   Overcast
9:35 PM 62.6 °F 57.2 °F 82% 30.06 in 10.0 mi North 13.8 mph 21.9 mph 0.00 in   Overcast
9:55 PM 62.6 °F 57.2 °F 82% 30.06 in 10.0 mi North 13.8 mph 20.7 mph 0.00 in   Overcast
10:15 PM 62.6 °F 57.2 °F 82% 30.05 in 10.0 mi North 13.8 mph 23.0 mph 0.00 in   Mostly Cloudy
10:35 PM 62.6 °F 57.2 °F 82% 30.05 in 10.0 mi North 13.8 mph 23.0 mph 0.00 in   Mostly Cloudy
10:55 PM 62.6 °F 57.2 °F 82% 30.05 in 10.0 mi North 13.8 mph 18.4 mph 0.00 in   Overcast
11:15 PM 60.8 °F 57.2 °F 88% 30.04 in 10.0 mi North 11.5 mph 19.6 mph 0.00 in   Overcast
11:35 PM 62.6 °F 57.2 °F 82% 30.05 in 10.0 mi NNE 9.2 mph 16.1 mph 0.00 in   Overcast
11:55 PM 62.6 °F 57.2 °F 82% 30.05 in 10.0 mi North 9.2 mph 17.3 mph 0.00 in   Overcast